Visibility
15.0 15.0 15.0 15.0 15.0 15.0 15.0 15.0 15.0 15.0 15.0 15.0 15.0 15.0 15.0 15.0 15.0 15.0 15.0 15.0 10.1 15.0 15.0 15.0 15.0 15.0 15.0 15.0 14.1 2.9 8.8 7.8 15.0 15.0 15.0 15.0 15.0 15.0 15.0 15.0 15.0 15.0 15.0
15.0 15.0 15.0 15.0 15.0 15.0 15.0 15.0 15.0 15.0 15.0 15.0 15.0 15.0 15.0 15.0 15.0 15.0 15.0 15.0 15.0 15.0 15.0 15.0 14.5 12.6 15.0 15.0 15.0 1.3 6.5 7.0 15.0 15.0 15.0 15.0 15.0 15.0 15.0 15.0 15.0 15.0 15.0
15.0 15.0 15.0 15.0 15.0 15.0 15.0 15.0 15.0 15.0 15.0 15.0 15.0 15.0 15.0 15.0 15.0 15.0 15.0 15.0 15.0 15.0 15.0 15.0 15.0 14.5 5.6 14.2 15.0 1.4 3.0 15.0 15.0 15.0 15.0 15.0 15.0 15.0 15.0 15.0 15.0 15.0 15.0
15.0 15.0 15.0 15.0 15.0 15.0 15.0 15.0 15.0 15.0 15.0 15.0 15.0 15.0 15.0 15.0 15.0 15.0 15.0 15.0 15.0 15.0 0.4 10.6 15.0 15.0 7.4 3.7 13.1 3.3 0.9 2.8 12.3 15.0 15.0 15.0 15.0 15.0 15.0 15.0 15.0 15.0 15.0
15.0 1.5 15.0 15.0 15.0 15.0 15.0 15.0 15.0 15.0 15.0 15.0 15.0 15.0 15.0 15.0 15.0 15.0 15.0 15.0 15.0 15.0 15.0 0.1 15.0 15.0 15.0 15.0 8.9 4.7 3.1 2.3 4.4 15.0 15.0 15.0 15.0 15.0 15.0 15.0 15.0 15.0 15.0
14.1 5.4 9.6 15.0 15.0 15.0 15.0 15.0 15.0 15.0 15.0 15.0 15.0 15.0 15.0 15.0 15.0 15.0 15.0 15.0 15.0 15.0 15.0 6.0 11.0 15.0 15.0 15.0 10.9 10.0 9.2 1.7 8.6 7.9 11.2 15.0 15.0 15.0 15.0 15.0 15.0 15.0 15.0
15.0 15.0 15.0 15.0 15.0 15.0 15.0 15.0 4.6 15.0 15.0 15.0 15.0 15.0 15.0 15.0 15.0 15.0 15.0 15.0 15.0 15.0 15.0 15.0 4.9 15.0 15.0 15.0 15.0 15.0 15.0 2.7 7.2 6.0 9.2 15.0 15.0 15.0 15.0 15.0 15.0 15.0 15.0
15.0 15.0 15.0 15.0 15.0 15.0 2.4 11.6 2.3 2.0 15.0 10.5 11.5 9.7 0.4 3.0 15.0 15.0 15.0 15.0 15.0 15.0 15.0 15.0 1.3 15.0 15.0 15.0 15.0 15.0 15.0 5.9 5.7 15.0 9.7 15.0 15.0 15.0 15.0 15.0 15.0 15.0 15.0
15.0 15.0 13.8 9.2 15.0 15.0 10.3 7.8 7.7 1.6 1.4 8.0 3.0 8.7 3.9 15.0 15.0 15.0 12.0 15.0 15.0 15.0 15.0 15.0 5.0 15.0 15.0 15.0 10.9 15.0 15.0 15.0 1.5 8.1 15.0 15.0 15.0 15.0 15.0 15.0 15.0 15.0 15.0
15.0 15.0 15.0 14.9 13.2 14.3 4.6 7.0 13.3 3.7 3.9 2.1 2.5 7.1 13.9 15.0 15.0 4.1 15.0 15.0 15.0 15.0 15.0 15.0 15.0 15.0 15.0 15.0 15.0 11.6 3.4 6.8 2.4 4.7 15.0 15.0 15.0 15.0 15.0 15.0 15.0 15.0 15.0
15.0 15.0 15.0 15.0 9.3 5.1 8.6 15.0 5.5 14.9 15.0 15.0 15.0 4.7 15.0 15.0 15.0 15.0 7.7 0.1 1.5 15.0 15.0 15.0 15.0 15.0 15.0 15.0 14.9 0.9 0.1 0.1 0.3 5.0 5.9 11.1 15.0 15.0 15.0 15.0 15.0 15.0 15.0
15.0 15.0 15.0 15.0 15.0 14.5 3.9 8.8 8.2 4.8 15.0 15.0 15.0 15.0 15.0 15.0 15.0 15.0 15.0 15.0 15.0 0.7 7.4 15.0 15.0 14.8 1.2 15.0 15.0 0.2 0.2 0.2 1.8 5.6 6.7 8.9 15.0 15.0 15.0 15.0 15.0 15.0 15.0
15.0 15.0 15.0 15.0 15.0 14.7 3.4 3.0 3.2 8.8 6.8 7.6 14.5 4.2 8.0 15.0 15.0 15.0 15.0 15.0 15.0 5.3 0.1 8.0 15.0 15.0 15.0 15.0 0.8 0.1 0.2 0.4 4.3 6.5 5.1 10.7 15.0 15.0 15.0 15.0 15.0 15.0 15.0
15.0 15.0 15.0 15.0 15.0 15.0 15.0 13.9 10.0 2.6 9.4 15.0 15.0 13.5 15.0 15.0 15.0 15.0 15.0 15.0 0.6 0.2 0.4 14.8 15.0 15.0 15.0 15.0 12.3 0.1 0.3 0.1 6.6 5.3 4.7 10.4 15.0 15.0 15.0 15.0 15.0 15.0 15.0
15.0 15.0 15.0 15.0 15.0 15.0 15.0 15.0 4.2 2.7 15.0 13.8 13.2 15.0 8.6 15.0 15.0 15.0 15.0 15.0 15.0 1.9 0.0 15.0 0.2 15.0 15.0 15.0 12.1 2.2 10.7 0.1 0.1 6.7 14.9 15.0 15.0 15.0 15.0 15.0 15.0 15.0 15.0
15.0 15.0 15.0 15.0 15.0 15.0 11.0 15.0 8.4 7.4 15.0 6.2 3.1 14.3 4.6 3.0 9.8 15.0 15.0 3.2 15.0 15.0 15.0 15.0 15.0 13.2 12.8 15.0 6.3 15.0 15.0 5.6 0.2 0.4 7.4 10.8 15.0 15.0 15.0 15.0 15.0 15.0 15.0
15.0 15.0 15.0 15.0 15.0 15.0 12.6 9.9 10.0 13.8 15.0 9.1 2.5 15.0 13.1 15.0 10.8 15.0 11.1 11.9 4.5 15.0 15.0 15.0 15.0 15.0 15.0 15.0 15.0 15.0 15.0 15.0 10.6 0.4 0.3 5.2 15.0 15.0 14.9 15.0 15.0 15.0 15.0
15.0 15.0 8.9 2.9 12.6 15.0 4.0 7.3 2.0 4.0 13.9 10.3 15.0 4.5 9.4 3.6 6.6 3.2 15.0 15.0 4.0 5.1 15.0 15.0 14.5 0.2 10.6 15.0 15.0 15.0 15.0 15.0 13.1 15.0 14.6 14.9 14.9 14.7 15.0 15.0 15.0 15.0 15.0
15.0 15.0 15.0 15.0 5.8 15.0 3.8 15.0 6.1 5.1 13.3 13.2 2.5 3.3 15.0 1.8 2.4 15.0 10.5 5.5 15.0 13.4 15.0 15.0 15.0 15.0 15.0 15.0 2.1 13.8 0.2 11.8 15.0 7.6 11.9 12.7 14.4 15.0 15.0 15.0 15.0 15.0 15.0
15.0 15.0 15.0 15.0 15.0 3.7 0.1 1.1 4.7 8.1 14.3 8.8 2.6 10.8 15.0 15.0 15.0 12.1 10.1 7.7 9.3 12.9 13.4 14.4 14.7 15.0 15.0 15.0 6.2 0.0 0.1 0.6 0.1 8.1 0.5 2.8 1.8 12.6 14.7 11.8 15.0 12.2 14.8
15.0 15.0 15.0 10.7 15.0 2.2 3.6 1.6 0.1 4.6 15.0 3.8 0.9 0.3 0.2 0.9 0.1 1.9 3.0 11.9 10.6 14.8 12.3 5.7 9.0 5.8 0.5 0.0 0.0 0.1 0.1 0.1 0.2 0.5 0.1 0.1 0.1 0.1 0.1 0.2 0.3 1.8 3.4
15.0 15.0 15.0 15.0 15.0 14.5 8.8 8.5 0.2 1.7 9.0 0.8 0.1 0.1 0.2 0.4 0.2 0.2 0.3 0.2 0.1 5.2 9.3 0.5 6.7 0.4 15.0 15.0 14.8 0.4 0.2 0.1 0.1 7.5 4.9 0.1 4.7 0.1 0.1 0.2 2.9 4.3 9.0
15.0 15.0 15.0 15.0 14.6 10.4 8.6 12.9 1.1 0.7 0.1 0.2 0.3 3.9 13.8 3.7 1.3 0.5 0.3 0.3 0.2 0.2 0.1 0.1 1.8 13.5 15.0 15.0 15.0 0.8 0.4 15.0 1.1 0.2 4.4 0.2 0.3 0.1 0.4 1.6 6.7 7.0 7.1
0.2 0.2 0.4 2.1 1.7 1.7 2.2 2.7 0.4 6.7 4.7 2.0 0.9 15.0 12.1 6.7 12.7 1.6 0.2 0.1 0.1 0.1 0.1 0.1 0.1 0.0 0.0 6.8 15.0 12.9 7.0 0.2 0.3 0.1 2.1 0.3 0.5 0.1 0.1 0.2 3.8 11.2 8.1
0.6 0.1 0.1 0.4 0.8 0.3 2.9 4.0 4.5 0.4 0.2 1.0 1.3 13.3 15.0 11.3 4.8 7.0 6.6 0.1 0.3 0.6 15.0 15.0 15.0 15.0 13.7 0.1 4.2 2.9 0.3 2.9 0.1 0.2 0.2 0.5 0.2 0.1 0.3 0.1 1.1 4.8 0.7
0.1 0.2 0.2 0.1 0.2 0.1 0.1 0.2 0.5 0.4 0.7 0.6 0.8 2.4 3.4 2.2 3.2 15.0 15.0 15.0 0.1 0.1 14.8 15.0 15.0 15.0 15.0 7.9 0.6 0.0 15.0 9.2 5.7 1.1 6.9 0.8 0.5 0.8 0.8 0.4 0.2 0.2 1.3